Regional Weather Roundup
Issued by NWS

Home | Current Version | Previous Version | Text Only | Print | Product List | Glossary On
Versions: 1 2 3 4 5 6 7 8 9 10 11 12 13 14 15 16 17 18 19 20 21 22 23 24 25 26 27 28 29 30 31 32 33 34 35 36 37 38 39 40 41 42 43 44 45 46 47 48 49 50
000
ASUS45 KBOU 311107
RWRCO

WEATHER ROUNDUP FOR COLORADO
NATIONAL WEATHER SERVICE DENVER/BOULDER CO
500 AM MDT MON AUG 31 2015

NOTE: "FAIR" INDICATES FEW OR NO CLOUDS BELOW 12000 FEET WITH NO
SIGNIFICANT WEATHER AND/OR OBSTRUCTIONS TO VISIBILITY.

COZ001>005-013-030-031-311200-
...NORTHWEST COLORADO...

CITY           SKY/WX    TMP DP  RH WIND       PRES   REMARKS
CRAIG          CLOUDY    57  50  77 E3        30.21F
HAYDEN         NOT AVBL
MEEKER         NOT AVBL
MOUNT WERNER   NOT AVBL
STEAMBOAT SPGS CLOUDY    52  51  97 CALM      30.25R
WALDEN         CLOUDY    50  45  81 E3        30.30F
$$

COZ006>008-011-311200-
...WEST CENTRAL VALLEYS...

CITY           SKY/WX    TMP DP  RH WIND       PRES   REMARKS
GRAND JUNCTION CLOUDY    62  58  86 SE8       30.11S
MONTROSE       MOCLDY    57  54  89 S6        30.20S
EAGLE          CLOUDY    57  55  94 SW7       30.27S
RIFLE          CLOUDY    60  56  86 CALM      30.18F
DELTA          RAIN      63  58  83 CALM      30.16S
NUCLA          MOCLDY    63  50  63 E7        30.21R
$$

COZ017>023-064>068-311200-
...SOUTHWEST COLORADO...

CITY           SKY/WX    TMP DP  RH WIND       PRES   REMARKS
DURANGO        PTCLDY    54  47  77 CALM      30.23R
CORTEZ         CLEAR     57  52  83 CALM      30.20R
PAGOSA SPRINGS PTCLDY    58  46  63 CALM      30.30R
TELLURIDE      CLOUDY    55  46  74 SE7       30.40S
WOLF CREEK PAS MOCLDY    43  39  87 SW16      30.58S
$$

COZ009-010-012-014-032>034-037-058>063-311200-
...CENTRAL COLORADO...

CITY           SKY/WX    TMP DP  RH WIND       PRES   REMARKS
ASPEN          CLOUDY    55  51  86 S6        30.31F
BUENA VISTA    MOCLDY    60  44  55 NW10G21   30.28S
COPPER MTN     HAZE      45  41  87 W5        30.56F VSB 1/4
BERTHOUD PASS  CLOUDY    37  27  65 W22       30.57F HAZE
COTTONWOOD PAS MOCLDY    59  39  47 W12G26    30.40S
GUNNISON       MOCLDY    54  45  71 N5        30.33S
KREMMLING      CLOUDY    54  46  76 CALM      30.30R
LEADVILLE      CLOUDY    47  46  97 N5        30.42S
MONARCH PASS   MOCLDY    43  37  81 W24       30.64S
SALIDA         MOCLDY    63  44  50 NW5       30.32S
SUNLIGHT       RAIN      46  46 100 CALM      30.50S
WILKERSON PASS MOCLDY    50  36  57 W10G18    30.52S
$$

COZ069>075-311200-
...SAN LUIS VALLEY/SANGRE DE CRISTO MOUNTAINS...

CITY           SKY/WX    TMP DP  RH WIND       PRES   REMARKS
ALAMOSA        CLOUDY    55  42  61 CALM      30.26R
LA VETA PASS   PTCLDY    52  39  62 SW9       30.41S
SAGUACHE       MOCLDY    59  43  55 N13       30.29S
$$

COZ035-036-038>040-311200-
...NORTHERN COLORADO FRONT RANGE...

CITY           SKY/WX    TMP DP  RH WIND       PRES   REMARKS
DENVER INTL AP MOCLDY    69  45  41 N5        30.04R
DMNS CITY PARK   N/A     68  49  50 SE9       30.04R
AURORA         MOCLDY    67  45  45 CALM      30.06S
FRONT RANGE AP NOT AVBL
ERIE MUNI ARPT MOCLDY    70  47  44 S5        30.02R
BOULDER MUN AP MOCLDY    75  43  31 CALM      30.03R
CENTENNIAL     MOCLDY    65  48  54 S3        30.07S
BROOMFIELD     MOCLDY    73  43  33 NW13G26   30.06R
FORT COLLINS   CLOUDY    72  48  43 NW3       30.02R
LONGMONT       CLOUDY    68  55  62 CALM      30.03R
$$

COZ041-046-047-076>085-087-088-311200-
...PIKES PEAK/PALMER DIVIDE AND SOUTHERN FOOTHILLS...

CITY           SKY/WX    TMP DP  RH WIND       PRES   REMARKS
COLO. SPRINGS  PTCLDY    63  47  55 W5        30.08R
A. F. ACADEMY  CLOUDY    67  40  37 NE10      30.11R
ELLICOTT       NOT AVBL
FALCON         PTCLDY    66  39  37 MISG      30.14R
FORT CARSON    PTCLDY    64  48  57 W6        30.05R
LIMON          PTCLDY    48  46  93 N7        30.03R
MONUMENT HILL  PTCLDY    55  41  58 NW6       30.16S
TRINIDAD       CLEAR     67  48  50 W17       30.06S
$$

COZ042>045-048>051-090-091-311200-
...NORTHEAST COLORADO...

CITY           SKY/WX    TMP DP  RH WIND       PRES   REMARKS
GREELEY ARPT   CLOUDY    66  52  59 CALM      30.00R
AKRON          PTCLDY    64  48  56 SW10      29.98R
BURLINGTON     CLEAR     58  49  72 S9        29.95F
WRAY           CLEAR     65  49  55 S5        29.93F
STERLING       PTCLDY    63  52  67 NW3       29.94R
HOLYOKE        CLEAR     55  46  71 E3        29.94S
FORT MORGAN    PTCLDY    64  49  58 N6        29.98S
$$

COZ086-089-092>099-311200-
...SOUTHEAST COLORADO...

CITY           SKY/WX    TMP DP  RH WIND       PRES   REMARKS
PUEBLO         PTCLDY    62  48  60 CALM      29.97R
LA JUNTA       CLEAR     63  52  67 S6        29.93R
LAMAR          CLEAR     56  51  84 E7        29.90S HAZE
SPRINGFIELD    NOT AVBL
$$




USA.gov is the U.S. government's official web portal to all federal, state and local government web resources and services.